Location: Township of Marena
(38.1747°N, 99.6798°W)
Time: 03:30:17
(UTC+00:00)

SL-19 R/B - Pass Details

Date: 26 October 2020
Orbit: 358 x 808 km, 99.4° (Epoch: 24 November)

Event Time Altitude Azimuth Distance (km) Brightness Sun altitude
Rises 11:40:03 0° 11° (N) 2,198 7.5 -16.1°
Reaches altitude 10° 11:41:58 10° 8° (N) 1,344 6.4 -15.7°
Maximum altitude 11:44:45 65° 286° (WNW) 406 3.3 -15.2°
Drops below altitude 10° 11:47:37 10° 204° (SSW) 1,383 6.2 -14.6°
Sets 11:49:37 0° 201° (SSW) 2,271 7.3 -14.2°
